COSMOS 2251 DEB, 40236

Orbit data source: Space-Track

COSMOS 2251 DEB, 40236 is space debris in LEO originally from a launch on Wed, 16 Jun 1993 UTC launched from the Plesetsk Missile And Space Complex (PKMTR). The debris from Iridium 33, an American commercial communications satellite, has been tracked extensively since its accidental collision with the defunct Russian satellite Cosmos 2251 in 2009. This event, occurring at high speed in low Earth orbit (LEO), generated thousands of pieces of space debris, significantly increasing the risk of further collisions. The Iridium 33 debris cloud has impacted space traffic management and orbital debris mitigation strategies, making it a subject of ongoing study in space situational awareness.

Loading next visibility...
Identifier
40236, 1993-036BVR
Orbit
LEO
Country
Flag of CISCIS
Related business
Manufacturer
Unknown
Mission
Spacecraft
Bus & Motor
Unknown
Mass
Unknown
Launch date (UTC)
1993-06-16 (32 years ago)
Launch vehicle
Unknown
Launch site
Plesetsk Missile And Space Complex (PKMTR)
Object type
Payload
Rocket body
Debris
Shape & HBR
Unknown
Radar Cross Section
Small (<0.1 m²)

Expand to show TLE details & history
Last TLE update: 11 months ago

TLE from 11 months ago
0 COSMOS 2251 DEB
1 40236U 93036BVR 24293.70309052  .00005336  00000-0  57947-2 0  9993
2 40236  73.5376  83.4476 0542403   2.0786 358.2378 13.23188478480789
Epoch: 2024-10-19T16:52Z
TLE epoch observation values (Epoch: 2024-10-19T16:52:27.02Z)
Latitude
-0.00006°
Longitude
161.68034°
Altitude
765.622 km
Speed
7.671 km/s
True Right ascension
05h 33m 47s
True Declination
0° 00' 00"
Sunlit
Object was in full shadow at epoch
Visualization orbit readout
Latitude
Unknown
Longitude
Unknown
Altitude
Unknown
Speed
Unknown
Apparent Right ascension
Unknown
Apparent Declination
Unknown
Sunlit
N/A
Visualization observer readout
Local Sidereal Time
13:57:18
Azimuth
Unknown
Elevation
Unknown
Doppler factor
Unknown
Orbital elements
Apogee altitude
1,579.779 km
Perigee altitude
760.915 km
Semi-major axis
7,548.484 km
Eccentricity
0.05424
Inclination
73.5376°
RAAN
83.4476°
Arg. of periapsis
2.0786°
True anomaly
358.03282°
Mean anomaly
358.2378°
Eccentric anomaly
358.13675°
Mean motion
3.30943 °/min
Orbital period
108.78 mins
BSTAR
0.0057947
Loading maneuver chart data...
Computing Atmospheric mass density...

Documentation

Showing up to 5 results
|